CAPE
0 783 163 63 0 43 173 562 580 586 763 789 712 590 581 479 415 413 351 325 302 257 275 214 164 131 92 66 47 20 0 0 0 0 0 0 0 0 0 0 0 0 0
126 753 49 612 715 808 577 588 770 622 757 629 611 535 481 71 15 28 11 1 0 0 0 5 9 24 82 152 169 188 195 167 12 0 0 0 0 0 0 0 0 0 0
795 119 173 696 541 401 728 527 530 614 594 528 274 74 0 0 0 0 0 0 0 0 0 0 0 0 0 0 0 0 0 0 0 29 0 1 0 0 0 0 27 0 0
589 22 863 455 108 155 432 651 609 231 7 0 0 0 0 0 0 0 0 0 0 0 0 0 0 0 0 0 0 0 0 0 0 0 29 40 14 0 0 0 0 156 74
157 0 726 172 223 614 740 358 6 0 0 0 0 0 0 0 0 0 0 0 0 0 0 0 0 0 0 0 0 0 0 0 0 0 0 0 47 47 70 100 53 69 232
0 4 248 167 699 724 165 0 0 0 0 0 0 0 0 0 0 0 0 0 0 0 0 0 0 0 0 0 0 0 0 0 0 0 0 0 0 0 2 30 6 108 267
0 134 50 714 728 171 0 0 0 0 0 0 0 0 0 0 0 0 0 0 0 0 0 0 0 0 0 0 0 0 0 0 0 0 0 0 0 0 0 0 0 0 24
52 29 443 598 170 0 0 0 0 0 0 0 0 0 0 0 0 0 0 0 0 0 0 0 0 0 0 0 0 0 0 0 0 0 0 0 0 0 0 0 0 0 0
88 618 818 198 0 0 0 0 0 0 0 0 0 0 0 0 0 0 0 0 0 0 0 0 0 0 0 0 0 0 0 0 0 0 0 0 0 0 0 0 8 0 0
778 585 149 0 0 0 0 0 0 0 0 0 0 0 0 0 0 0 0 0 0 0 0 0 0 0 0 0 0 0 0 0 0 0 0 0 0 0 0 0 26 47 43
345 89 0 0 0 0 0 0 0 0 0 0 0 0 0 0 0 0 0 0 0 0 0 0 0 0 0 0 0 0 0 0 0 0 0 0 0 0 0 0 9 0 0
214 0 0 0 0 0 0 0 0 0 0 0 0 0 0 0 0 0 0 0 0 0 0 0 0 0 0 0 0 0 0 0 0 0 0 0 0 0 1 0 0 1 0
122 0 0 0 0 0 0 0 0 0 0 0 0 0 0 0 0 0 0 0 0 0 0 0 0 0 0 0 0 0 0 0 0 0 0 0 0 0 1 0 0 0 0
0 0 0 0 0 0 0 0 0 0 0 0 0 0 0 0 0 0 0 0 0 0 0 0 0 0 0 0 0 0 0 0 0 0 0 0 0 0 3 10 12 11 13
0 0 0 0 0 0 0 0 0 0 0 0 0 0 0 0 0 0 0 0 0 0 0 0 0 0 0 0 0 0 0 0 0 0 0 0 0 0 4 26 17 9 3
0 0 0 0 0 0 0 0 0 0 0 0 0 0 0 0 0 0 0 0 0 0 0 0 0 0 0 0 0 0 0 0 0 0 0 0 0 0 0 9 2 12 34
0 0 0 0 0 0 0 0 0 0 0 0 0 0 0 0 0 0 0 0 0 0 0 0 0 0 0 0 0 0 0 0 0 0 0 0 0 0 3 30 24 14 32
0 0 0 0 0 0 0 0 0 0 0 0 0 0 0 0 0 0 0 0 0 0 0 0 0 0 0 0 0 0 0 0 0 0 0 0 0 0 1 0 0 0 3
0 0 0 0 0 0 0 0 0 0 0 0 0 0 0 0 0 0 0 0 0 0 0 0 0 0 0 0 0 0 0 0 0 0 0 0 0 0 5 0 0 0 0
0 0 0 0 0 0 0 0 0 0 0 0 0 0 0 0 0 0 0 0 0 0 0 0 0 0 0 0 0 0 0 0 0 0 0 0 0 0 9 8 6 0 0
0 0 0 0 0 0 0 0 0 0 0 0 0 0 0 0 0 0 0 0 0 0 0 0 0 0 0 0 0 0 0 0 0 0 0 0 0 0 0 15 7 8 5
0 0 0 0 0 0 0 0 0 0 0 0 0 0 0 0 0 0 0 0 0 0 0 0 0 0 0 0 0 0 0 0 0 0 0 0 0 0 0 0 14 0 3
0 0 0 0 0 0 0 0 0 0 0 0 0 0 0 0 0 0 0 0 0 0 0 0 0 0 0 0 0 0 0 0 0 0 0 0 0 0 0 1 2 5 2
0 0 0 0 0 0 0 0 0 0 0 0 0 0 0 0 0 0 0 0 0 0 0 0 0 0 0 0 0 0 0 0 0 0 0 0 0 0 0 0 3 1 2
0 0 0 0 0 0 0 0 0 0 0 0 0 0 0 0 0 0 0 0 0 0 0 0 0 0 0 0 0 0 0 0 0 0 0 0 0 0 0 0 6 0 0
0 0 0 0 0 0 0 0 0 0 0 0 0 0 0 0 0 0 0 0 0 0 0 0 0 0 0 0 0 0 0 0 0 0 0 0 0 0 0 0 10 0 0
CIN
-0 -0 -90 -174 -0 -73 -74 -0 -0 -0 -0 -0 -0 -0 -0 -2 -8 -9 -17 -23 -33 -54 -63 -94 -125 -150 -187 -215 -251 -290 -0 -0 -0 -0 -0 -0 -0 -0 -0 -0 -0 -0 -0
-151 -0 -200 -1 -2 -1 -3 -0 -0 -0 -0 -0 -0 -3 -7 -121 -7 -160 -8 -17 -5 -0 -27 -17 -15 -281 -189 -145 -134 -122 -125 -137 -245 -0 -0 -0 -0 -0 -0 -0 -0 -0 -0
-8 -141 -92 -0 -4 -8 -0 -0 -0 -0 -0 -1 -41 -87 -0 -0 -0 -0 -0 -0 -0 -0 -0 -0 -0 -0 -0 -0 -0 -0 -0 -0 -0 -192 -0 -0 -0 -0 -0 -0 -185 -0 -0
-18 -277 -0 -10 -107 -80 -2 -0 -0 -44 -105 -0 -0 -0 -0 -0 -0 -0 -0 -0 -0 -0 -0 -0 -0 -0 -0 -0 -0 -0 -0 -0 -0 -0 -58 -123 -0 -0 -0 -0 -0 -109 -140
-141 -111 -0 -87 -68 -0 -0 -17 -64 -0 -0 -0 -0 -0 -0 -0 -0 -0 -0 -0 -0 -0 -0 -0 -0 -0 -0 -0 -0 -0 -0 -0 -0 -0 -0 -0 -239 -248 -192 -167 -193 -175 -85
-5 -227 -66 -98 -0 -0 -82 -0 -0 -0 -0 -0 -0 -0 -0 -0 -0 -0 -0 -0 -0 -0 -0 -0 -0 -0 -0 -0 -0 -0 -0 -0 -0 -0 -0 -0 -0 -0 -4 -246 -34 -150 -71
-0 -125 -208 -0 -0 -108 -0 -0 -0 -0 -0 -0 -0 -0 -0 -0 -0 -0 -0 -0 -0 -0 -0 -0 -0 -0 -0 -0 -0 -0 -0 -0 -0 -0 -0 -0 -0 -0 -0 -0 -0 -0 -100
-258 -252 -18 -3 -115 -0 -0 -0 -0 -0 -0 -0 -0 -0 -0 -0 -0 -0 -0 -0 -0 -0 -0 -0 -0 -0 -0 -0 -0 -0 -0 -0 -0 -0 -0 -0 -0 -0 -0 -0 -0 -0 -0
-212 -7 -0 -88 -0 -0 -0 -0 -0 -0 -0 -0 -0 -0 -0 -0 -0 -0 -0 -0 -0 -0 -0 -0 -0 -0 -0 -0 -0 -0 -0 -0 -0 -0 -0 -0 -0 -0 -0 -0 -0 -0 -0
-2 -7 -139 -0 -0 -0 -0 -0 -0 -0 -0 -0 -0 -0 -0 -0 -0 -0 -0 -0 -0 -0 -0 -0 -0 -0 -0 -0 -0 -0 -0 -0 -0 -0 -0 -0 -0 -0 -0 -0 -0 -0 -2
-90 -238 -0 -0 -0 -0 -0 -0 -0 -0 -0 -0 -0 -0 -0 -0 -0 -0 -0 -0 -0 -0 -0 -0 -0 -0 -0 -0 -0 -0 -0 -0 -0 -0 -0 -0 -0 -0 -0 -0 -0 -0 -0
-174 -0 -0 -0 -0 -0 -0 -0 -0 -0 -0 -0 -0 -0 -0 -0 -0 -0 -0 -0 -0 -0 -0 -0 -0 -0 -0 -0 -0 -0 -0 -0 -0 -0 -0 -0 -0 -0 -0 -0 -0 -0 -0
-248 -0 -0 -0 -0 -0 -0 -0 -0 -0 -0 -0 -0 -0 -0 -0 -0 -0 -0 -0 -0 -0 -0 -0 -0 -0 -0 -0 -0 -0 -0 -0 -0 -0 -0 -0 -0 -0 -0 -0 -0 -0 -0
-0 -0 -0 -0 -0 -0 -0 -0 -0 -0 -0 -0 -0 -0 -0 -0 -0 -0 -0 -0 -0 -0 -0 -0 -0 -0 -0 -0 -0 -0 -0 -0 -0 -0 -0 -0 -0 -0 -0 -1 -0 -0 -0
-0 -0 -0 -0 -0 -0 -0 -0 -0 -0 -0 -0 -0 -0 -0 -0 -0 -0 -0 -0 -0 -0 -0 -0 -0 -0 -0 -0 -0 -0 -0 -0 -0 -0 -0 -0 -0 -0 -0 -0 -0 -0 -0
-0 -0 -0 -0 -0 -0 -0 -0 -0 -0 -0 -0 -0 -0 -0 -0 -0 -0 -0 -0 -0 -0 -0 -0 -0 -0 -0 -0 -0 -0 -0 -0 -0 -0 -0 -0 -0 -0 -0 -0 -0 -0 -0
-0 -0 -0 -0 -0 -0 -0 -0 -0 -0 -0 -0 -0 -0 -0 -0 -0 -0 -0 -0 -0 -0 -0 -0 -0 -0 -0 -0 -0 -0 -0 -0 -0 -0 -0 -0 -0 -0 -0 -0 -0 -0 -0
-0 -0 -0 -0 -0 -0 -0 -0 -0 -0 -0 -0 -0 -0 -0 -0 -0 -0 -0 -0 -0 -0 -0 -0 -0 -0 -0 -0 -0 -0 -0 -0 -0 -0 -0 -0 -0 -0 -0 -0 -0 -0 -0
-0 -0 -0 -0 -0 -0 -0 -0 -0 -0 -0 -0 -0 -0 -0 -0 -0 -0 -0 -0 -0 -0 -0 -0 -0 -0 -0 -0 -0 -0 -0 -0 -0 -0 -0 -0 -0 -0 -0 -0 -0 -0 -0
-0 -0 -0 -0 -0 -0 -0 -0 -0 -0 -0 -0 -0 -0 -0 -0 -0 -0 -0 -0 -0 -0 -0 -0 -0 -0 -0 -0 -0 -0 -0 -0 -0 -0 -0 -0 -0 -0 -0 -0 -0 -0 -0
-0 -0 -0 -0 -0 -0 -0 -0 -0 -0 -0 -0 -0 -0 -0 -0 -0 -0 -0 -0 -0 -0 -0 -0 -0 -0 -0 -0 -0 -0 -0 -0 -0 -0 -0 -0 -0 -0 -0 -0 -0 -0 -1
-0 -0 -0 -0 -0 -0 -0 -0 -0 -0 -0 -0 -0 -0 -0 -0 -0 -0 -0 -0 -0 -0 -0 -0 -0 -0 -0 -0 -0 -0 -0 -0 -0 -0 -0 -0 -0 -0 -0 -0 -0 -0 -12
-0 -0 -0 -0 -0 -0 -0 -0 -0 -0 -0 -0 -0 -0 -0 -0 -0 -0 -0 -0 -0 -0 -0 -0 -0 -0 -0 -0 -0 -0 -0 -0 -0 -0 -0 -0 -0 -0 -0 -0 -0 -1 -4
-0 -0 -0 -0 -0 -0 -0 -0 -0 -0 -0 -0 -0 -0 -0 -0 -0 -0 -0 -0 -0 -0 -0 -0 -0 -0 -0 -0 -0 -0 -0 -0 -0 -0 -0 -0 -0 -0 -0 -0 -0 -0 -0
-0 -0 -0 -0 -0 -0 -0 -0 -0 -0 -0 -0 -0 -0 -0 -0 -0 -0 -0 -0 -0 -0 -0 -0 -0 -0 -0 -0 -0 -0 -0 -0 -0 -0 -0 -0 -0 -0 -0 -0 -0 -0 -0
-0 -0 -0 -0 -0 -0 -0 -0 -0 -0 -0 -0 -0 -0 -0 -0 -0 -0 -0 -0 -0 -0 -0 -0 -0 -0 -0 -0 -0 -0 -0 -0 -0 -0 -0 -0 -0 -0 -0 -0 -0 -0 -0
Wind_Speed
11 13 13 13 13 11 9 6 5 7 7 13 14 15 18 18 21 16 16 17 17 18 18 21 22 23 22 22 22 22 22 21 21 20 19 18 18 17 16 16 16 17 19
13 12 13 14 12 7 9 8 6 10 10 12 14 15 17 18 18 17 17 17 18 18 19 20 22 23 24 24 24 23 19 19 17 17 16 11 13 15 14 12 13 15 15
14 12 12 12 8 7 8 8 8 10 12 13 14 16 17 19 19 19 19 19 19 20 21 21 22 23 24 24 23 22 22 21 22 13 9 10 12 13 13 12 10 11 12
15 12 11 10 9 9 8 8 10 11 13 14 16 17 18 19 19 19 19 20 21 21 21 22 22 21 21 13 23 16 13 13 12 10 7 11 12 15 14 12 12 9 9
13 13 10 9 9 9 8 9 11 12 14 15 16 17 18 18 19 19 20 20 20 20 21 23 24 25 25 26 25 24 24 24 18 10 12 12 15 15 17 15 13 14 13
17 16 12 9 8 9 9 10 12 13 15 16 17 18 18 19 19 20 20 19 20 20 21 24 25 25 25 24 24 25 25 26 21 19 18 18 16 19 19 18 18 18 17
20 17 15 9 8 9 9 11 12 14 15 16 17 18 19 19 20 20 20 20 21 22 23 25 25 24 24 23 24 25 25 25 22 20 20 20 20 22 20 20 21 20 19
22 21 17 11 9 9 9 11 12 14 15 16 18 18 19 19 20 21 21 21 22 23 24 25 25 25 24 24 24 24 24 24 21 21 22 22 24 24 22 23 24 25 21
21 20 19 14 10 9 9 11 12 14 15 17 18 19 19 20 20 21 22 22 23 24 25 26 27 27 26 26 26 25 24 23 22 23 23 22 27 26 24 24 27 27 24
14 14 15 14 11 9 9 11 12 13 15 16 18 19 20 20 21 22 22 23 24 25 26 27 27 27 27 27 27 26 25 21 24 24 24 25 27 25 24 25 26 26 24
9 10 9 10 8 9 9 10 11 13 14 16 18 19 20 20 21 22 23 24 25 26 27 27 28 28 27 24 26 27 24 25 25 26 25 29 28 26 25 24 24 24 23
7 6 5 5 6 7 9 9 11 12 14 16 18 19 20 20 21 22 23 24 25 26 27 28 28 27 28 28 27 25 26 27 26 26 26 29 28 28 27 25 23 22 23
8 6 6 5 5 7 9 10 11 13 14 16 18 19 20 21 22 22 23 25 26 27 28 28 28 29 30 29 28 27 27 27 26 26 28 29 28 28 27 25 24 23 23
5 5 4 4 5 7 9 11 12 13 14 16 17 19 20 21 22 23 24 25 26 27 28 28 29 30 30 30 29 28 27 27 27 26 26 28 28 28 27 26 25 24 23
3 3 2 3 5 7 9 10 12 13 15 16 17 19 20 21 22 23 24 25 26 27 28 29 30 30 31 30 28 27 26 27 27 26 26 27 27 27 26 27 26 25 24
3 3 1 2 4 6 8 10 11 13 14 16 17 19 20 21 22 23 24 25 26 27 28 29 30 30 30 29 29 26 26 26 26 26 26 25 26 27 27 26 27 27 25
3 2 1 2 4 5 8 10 12 14 14 15 17 18 19 20 22 23 24 26 27 27 28 29 29 29 29 27 27 26 25 26 25 26 25 25 24 26 27 27 27 28 28
5 3 2 3 3 5 7 9 12 14 15 16 17 18 19 20 21 23 24 26 26 27 28 28 29 29 29 27 26 25 24 24 25 24 24 24 24 23 24 26 27 27 27
6 4 4 4 4 4 6 9 11 13 15 16 17 18 19 20 21 23 24 25 26 27 27 28 28 28 29 27 25 24 23 23 23 23 23 24 24 23 22 23 25 26 26
8 7 6 6 5 5 7 9 11 13 14 15 16 17 19 20 21 23 24 25 26 26 27 27 28 28 28 27 24 23 22 21 21 22 22 22 23 22 22 22 21 23 25
10 9 7 6 6 6 7 9 11 12 12 13 15 16 18 20 22 23 23 24 24 25 26 26 27 27 28 28 25 23 20 19 21 20 22 21 22 21 21 20 20 21 22
13 11 9 8 6 7 10 10 12 11 13 13 14 15 16 20 22 23 23 23 23 24 24 25 26 27 26 27 27 24 24 20 20 20 19 21 22 20 21 19 18 19 20
15 13 10 8 8 8 9 10 11 12 14 14 13 14 16 20 22 22 23 22 22 22 23 24 24 26 27 25 26 25 24 24 24 18 18 19 22 20 21 21 17 17 19
18 15 12 9 9 8 8 9 10 13 14 14 14 15 18 20 21 22 22 22 22 21 22 22 22 23 24 25 22 22 21 20 21 20 18 19 20 18 18 22 18 17 19
18 16 12 10 9 9 9 9 10 14 14 13 14 16 18 19 20 20 21 22 22 21 21 20 20 20 21 22 21 21 20 19 16 17 19 20 23 18 17 21 19 17 18
20 16 14 12 10 10 10 10 11 13 14 14 15 16 17 18 19 20 21 21 21 21 20 19 19 19 20 20 19 19 19 18 18 17 18 20 21 21 22 16 17 16 17
Wind_Direction
86 86 77 70 64 56 42 13 324 336 312 16 9 8 14 7 53 346 340 339 337 339 338 356 7 22 31 29 25 26 29 30 32 34 40 46 45 44 52 47 48 39 31
95 87 80 75 70 30 37 31 341 14 346 351 356 4 11 7 354 340 337 333 332 331 333 334 344 351 358 8 10 17 39 35 46 43 47 67 57 48 50 55 51 36 39
95 85 81 82 53 37 28 14 357 356 4 3 1 356 358 3 1 355 350 345 338 334 333 329 328 334 351 3 11 19 18 24 14 55 68 65 49 39 39 38 40 38 33
97 89 79 73 59 46 28 9 14 9 4 360 356 356 359 0 359 352 347 345 347 345 339 333 326 313 305 357 14 29 43 40 39 46 61 37 32 20 19 19 17 16 16
95 94 79 72 61 49 32 26 17 8 3 2 359 0 358 355 352 346 343 342 333 333 334 340 346 358 355 352 2 4 2 2 16 28 21 15 7 5 359 0 360 357 355
101 98 88 75 62 51 33 23 16 11 4 2 1 1 1 357 349 347 342 332 329 324 326 341 1 0 6 11 8 5 0 356 9 8 6 1 356 349 347 347 346 343 343
107 99 96 77 64 50 34 24 18 11 9 5 4 3 2 357 356 354 340 334 336 335 336 351 3 12 14 17 11 6 4 1 4 5 3 358 354 345 341 339 336 333 332
111 109 100 78 64 45 26 20 16 12 9 7 5 3 360 356 354 354 347 339 342 345 351 358 7 12 15 14 12 11 9 6 8 3 359 356 352 349 344 339 336 332 327
110 109 104 88 62 34 18 16 17 15 13 10 8 5 1 357 351 353 355 348 347 350 351 354 0 4 7 9 10 10 9 9 9 4 0 357 349 348 347 343 339 333 331
100 97 96 90 68 38 15 11 13 13 11 9 6 4 1 2 354 354 353 351 348 350 356 358 360 2 8 8 9 9 10 15 9 7 3 358 352 350 348 344 343 344 344
96 92 85 80 54 37 15 11 5 4 6 6 4 359 359 352 351 353 354 352 351 355 357 0 2 6 7 14 11 9 15 12 10 7 5 358 356 353 348 344 345 345 344
105 92 74 53 37 14 9 356 352 351 348 351 352 353 353 354 354 356 358 355 356 356 0 2 5 9 9 7 7 11 9 8 9 8 6 2 360 357 353 351 349 348 344
111 96 83 53 6 347 343 350 345 344 343 346 348 347 350 350 350 353 353 351 353 356 356 359 3 5 4 5 6 6 6 8 9 9 8 5 4 1 359 358 356 352 347
124 106 77 50 23 351 340 338 339 337 337 339 342 344 344 346 348 351 352 351 353 355 356 359 0 1 2 2 4 5 8 9 10 10 12 9 8 7 7 6 4 1 359
146 120 86 35 12 3 350 339 335 335 332 336 338 339 341 344 345 348 350 351 353 356 357 358 358 359 0 2 6 8 11 11 12 13 14 15 14 13 13 12 11 7 7
162 142 53 26 9 360 348 347 342 335 335 335 336 337 340 342 345 347 350 351 353 354 355 357 357 359 2 5 7 12 13 13 14 16 17 19 19 17 13 11 8 11 13
198 165 290 33 2 360 346 338 332 333 337 339 336 334 336 339 341 346 349 350 351 355 356 358 359 2 3 8 9 12 13 14 16 17 19 21 21 20 14 13 15 16 19
246 221 283 325 353 355 355 342 333 330 330 332 332 332 333 336 339 344 345 347 350 354 356 358 0 1 3 6 8 10 13 16 17 19 20 20 19 20 21 13 18 17 15
245 246 275 301 326 355 1 344 336 332 329 331 333 332 331 331 335 340 343 347 349 353 355 357 360 2 1 4 7 10 13 15 17 18 17 17 16 19 17 21 25 20 18
256 263 277 293 312 337 346 341 336 333 332 333 333 333 331 328 331 337 341 344 348 351 354 357 358 0 2 2 4 6 11 14 15 14 12 14 13 18 14 19 27 25 21
260 263 270 280 297 318 327 333 330 329 334 335 335 333 332 329 330 334 339 342 347 350 353 356 357 359 359 1 0 1 4 10 10 10 7 12 12 15 10 17 23 22 23
257 263 268 276 288 305 315 326 331 334 328 333 336 336 335 330 330 332 337 341 346 349 352 355 358 356 358 4 359 360 358 4 7 6 10 10 9 13 3 9 16 17 21
259 261 264 270 284 299 312 322 329 332 328 329 334 336 334 330 330 333 336 341 345 348 350 354 357 356 355 2 4 3 358 356 359 10 9 9 6 13 359 359 12 14 13
260 264 268 271 281 294 303 312 317 319 321 326 327 329 327 328 330 334 338 342 345 347 349 352 358 358 358 357 4 7 8 5 4 4 9 4 5 9 12 351 2 6 5
258 262 266 271 278 286 294 306 313 314 321 326 325 324 325 329 332 336 339 341 342 346 349 352 357 358 359 360 3 5 6 9 13 7 359 0 354 10 13 352 358 4 358
258 262 266 269 274 282 291 300 306 311 316 318 321 322 326 329 333 335 336 339 342 345 349 354 355 356 356 359 2 3 5 7 5 4 358 356 355 354 353 6 354 358 358